Location: Fredericksburg
(30.2750°N, 98.8720°W)
Time: 09:11:33
(UTC-06:00)

Amateur Radio Satellites - All Passes

Search period start: 19 December 2014 08:41
Search period end: 20 December 2014 08:41
Location: Fredericksburg, 30.2750°N, 98.8720°W

Satellite Date Start Highest point End Downlink Frequencies (MHz)
Time Altitude Azimuth
BRITE-PL 19 Dec 09:08:24 09:13:06 54° 101° (E) 09:18:10 437.365/2234.400
CINEMA 3 19 Dec 09:16:23 09:19:46 19° 96° (E) 09:23:12 145.822/145.860
AAUSAT CUBESAT 2 19 Dec 09:26:40 09:30:45 45° 99° (E) 09:34:47 437.432
CANX-2 19 Dec 09:34:29 09:38:48 74° 283° (WNW) 09:43:04 2200.000
DANDE 19 Dec 09:36:28 09:38:33 17° 86° (E) 09:40:58 436.750
GOMX 1 19 Dec 09:42:57 09:47:47 88° 282° (WNW) 09:52:58 467.674
QB50P1 19 Dec 09:44:40 09:45:50 11° 68° (ENE) 09:47:00 145.935-145.965
UWE-3 19 Dec 09:51:23 09:55:01 23° 96° (E) 09:58:41 435.000/436.395/437.385
TIGRISAT 19 Dec 09:52:30 09:55:54 23° 71° (ENE) 09:59:22 435.000
FUNcube-1 19 Dec 09:54:50 09:58:12 20° 96° (E) 10:01:34 145.935
VERMONT LUNAR 19 Dec 09:58:15 10:01:45 64° 212° (SSW) 10:05:15 437.305
COMPASS 1 19 Dec 10:00:49 10:04:58 53° 284° (WNW) 10:09:05 437.405
HO-68 19 Dec 10:01:28 10:08:29 61° 288° (WNW) 10:15:28 435.675
SEEDS 19 Dec 10:04:23 10:08:23 40° 286° (WNW) 10:12:22 437.485
PHONESAT 2.4 19 Dec 10:04:33 10:08:12 86° 30° (NNE) 10:11:50 2401.200-2431.200
CUTE 1.7 + AOD 2 19 Dec 10:05:54 10:09:45 32° 287° (WNW) 10:13:35 437.475
AISAT 19 Dec 10:07:18 10:09:33 14° 95° (E) 10:11:48 437.250
POPSAT HIP 1 19 Dec 10:10:44 10:14:06 24° 72° (ENE) 10:17:29 437.405
DX 1 19 Dec 10:11:21 10:15:37 54° 101° (E) 10:19:51 434.975-435.025
RS-15 19 Dec 10:15:25 10:21:08 16° 101° (E) 10:26:47 29.354- 29.394
DOVE 4 19 Dec 10:15:40 10:20:21 52° 285° (WNW) 10:25:17 437.250
UNISAT 6 19 Dec 10:19:55 10:24:06 52° 75° (ENE) 10:28:23 437.425
DELFI C3 19 Dec 10:26:31 10:30:39 80° 283° (WNW) 10:34:44 145.870
50 SAT 19 Dec 10:29:35 10:32:45 21° 96° (E) 10:35:55 437.505
CUSAT 1 19 Dec 10:33:50 10:36:50 40° 283° (WNW) 10:40:40 437.405
Oscar 11 19 Dec 10:36:39 10:40:52 50° 285° (WNW) 10:45:04 145.826/435.025
DUCHIFAT 1 19 Dec 10:38:43 10:42:48 55° 76° (ENE) 10:46:54 145.980
HUMSAT D 19 Dec 10:39:18 10:43:20 37° 99° (E) 10:47:22 437.325/437.525
JUGNU 19 Dec 10:43:11 10:44:56 11° 160° (SSE) 10:46:42 437.505
UKube-1 19 Dec 10:44:07 10:48:22 58° 285° (WNW) 10:52:36 .
BUGSAT 1 19 Dec 10:45:09 10:49:09 51° 75° (ENE) 10:53:06 437.445
CUBEBUG 2 19 Dec 10:45:36 10:50:14 68° 284° (WNW) 10:54:57 437.445
YUBILEINY 19 Dec 10:46:46 10:54:04 29° 75° (ENE) 11:01:20 435.215
BRITE-PL 19 Dec 10:49:12 10:51:14 13° 291° (WNW) 10:53:18 437.365/2234.400
QB50P2 19 Dec 10:51:01 10:55:14 83° 77° (ENE) 10:59:27 145.880/145.840
ANTELSAT 19 Dec 10:51:37 10:55:52 60° 259° (W) 11:00:14 437.575/2403.000
CINEMA 3 19 Dec 10:52:37 10:56:55 34° 287° (WNW) 11:01:21 145.822/145.860
ESTCUBE 1 19 Dec 10:57:33 11:00:52 20° 96° (E) 11:04:09 437.505/2401.250
POLYITAN 1 19 Dec 10:59:19 11:03:31 77° 258° (WSW) 11:07:44 437.675
VELOX 1 19 Dec 10:59:35 11:03:57 61° 101° (E) 11:08:19 145.980
ZACube-1 19 Dec 11:02:52 11:07:20 59° 284° (WNW) 11:11:51 437.345
NANOSAT C BR1 19 Dec 11:02:55 11:07:06 70° 259° (WSW) 11:11:17 145.865
AAUSAT CUBESAT 2 19 Dec 11:04:50 11:05:56 11° 292° (WNW) 11:07:03 437.432
QB50P1 19 Dec 11:17:15 11:21:16 44° 260° (W) 11:25:18 145.935-145.965
DANDE 19 Dec 11:20:37 11:22:00 12° 292° (WNW) 11:23:31 436.750
UWE-3 19 Dec 11:27:37 11:31:25 26° 288° (WNW) 11:35:16 435.000/436.395/437.385
TIGRISAT 19 Dec 11:29:15 11:32:32 21° 264° (W) 11:35:53 435.000
FUNcube-1 19 Dec 11:30:35 11:34:27 28° 288° (WNW) 11:38:21 145.935
O/OREOS (USA 219) 19 Dec 11:33:00 11:37:30 69° 71° (ENE) 11:42:00 437.305
TISAT 1 19 Dec 11:36:22 11:36:26 10° 94° (E) 11:36:30 437.305
AISAT 19 Dec 11:42:09 11:46:15 38° 287° (WNW) 11:50:21 437.250
PHONESAT 2.4 19 Dec 11:44:51 11:46:32 13° 221° (SW) 11:48:12 2401.200-2431.200
POPSAT HIP 1 19 Dec 11:46:50 11:49:54 20° 264° (W) 11:52:58 437.405
CUBEBUG 1 19 Dec 11:53:13 11:57:33 86° 284° (WNW) 12:01:53 437.445
50 SAT 19 Dec 12:04:37 12:07:50 22° 288° (WNW) 12:11:02 437.505
HUMSAT D 19 Dec 12:16:30 12:18:46 14° 291° (WNW) 12:21:02 437.325/437.525
RS-15 19 Dec 12:20:54 12:31:56 90° 116° (ESE) 12:42:54 29.354- 29.394
JUGNU 19 Dec 12:28:49 12:33:24 23° 168° (SSE) 12:37:59 437.505
ESTCUBE 1 19 Dec 12:33:54 12:37:39 27° 288° (WNW) 12:41:24 437.505/2401.250
YUBILEINY 19 Dec 12:42:48 12:50:57 48° 271° (W) 12:59:08 435.215
PCSat 19 Dec 12:58:36 13:01:45 16° 104° (ESE) 13:04:54 145.827
Oscar 19 19 Dec 13:00:16 13:05:07 44° 73° (ENE) 13:09:59 437.125/150
SPROUT 19 Dec 13:07:01 13:11:12 53° 285° (WNW) 13:15:23 437.525
TISAT 1 19 Dec 13:08:23 13:12:25 46° 285° (WNW) 13:16:27 437.305
BEESAT 3 19 Dec 13:09:53 13:13:35 35° 112° (ESE) 13:17:20 437.485
AIST 2 19 Dec 13:10:46 13:12:41 13° 107° (ESE) 13:14:37 435.215
ITAMSAT 1 19 Dec 13:14:10 13:17:58 21° 69° (ENE) 13:21:46 435.822/435.867
SWISSCUBE 19 Dec 13:16:43 13:20:38 25° 97° (E) 13:24:31 437.505
ITUPSAT 1 19 Dec 13:16:47 13:20:30 23° 97° (E) 13:24:12 437.325
SRMSAT 19 Dec 13:29:59 13:34:10 20° 166° (SSE) 13:38:20 437.500
ISS 19 Dec 13:38:34 13:41:51 76° 133° (SE) 13:45:09 145.825
BEESAT 19 Dec 13:41:29 13:46:03 45° 100° (E) 13:50:34 436.000
AUBIESAT-1 19 Dec 13:46:04 13:48:14 14° 97° (E) 13:50:18 437.475
BEESAT 2 19 Dec 13:48:03 13:52:08 84° 297° (WNW) 13:56:17 435.950
AO-7 19 Dec 14:01:53 14:03:56 11° 54° (NE) 14:05:59 29.400- 29.500
M-CUBED/EXP-1 PRIME 19 Dec 14:09:20 14:13:08 32° 101° (ESE) 14:16:38 437.505
JUGNU 19 Dec 14:16:49 14:21:57 30° 178° (S) 14:27:05 437.505
RS-15 19 Dec 14:37:53 14:45:46 22° 318° (NW) 14:53:44 29.354- 29.394
Gurwin Techsat 1B 19 Dec 14:39:11 14:44:29 87° 257° (WSW) 14:49:49 435.225
PCSat 19 Dec 14:39:27 14:44:40 50° 297° (WNW) 14:49:55 145.827
Oscar 19 19 Dec 14:41:33 14:44:35 16° 266° (W) 14:47:38 437.125/150
AIST 2 19 Dec 14:46:55 14:50:52 40° 301° (WNW) 14:54:54 435.215
BEESAT 3 19 Dec 14:49:22 14:51:51 15° 307° (NW) 14:54:21 437.485
ITAMSAT 1 19 Dec 14:52:27 14:57:10 35° 261° (W) 15:01:53 435.822/435.867
ITUPSAT 1 19 Dec 14:54:18 14:58:17 27° 289° (WNW) 15:02:16 437.325
SWISSCUBE 19 Dec 14:54:32 14:58:20 24° 290° (WNW) 15:02:08 437.505
STARS 19 Dec 15:05:46 15:10:03 48° 100° (E) 15:14:20 437.465
KKS-1 19 Dec 15:06:29 15:10:58 80° 102° (ESE) 15:15:26 437.445
SRMSAT 19 Dec 15:17:47 15:22:50 29° 176° (S) 15:27:52 437.500
ISS 19 Dec 15:18:27 15:18:47 10° 328° (NNW) 15:19:06 145.825
AUBIESAT-1 19 Dec 15:19:33 15:23:19 32° 293° (WNW) 15:26:48 437.475
BEESAT 19 Dec 15:20:58 15:23:27 14° 293° (WNW) 15:25:55 436.000
HORYU 2 19 Dec 15:29:16 15:33:40 62° 259° (W) 15:38:06 437.375
JAS-2 19 Dec 15:31:53 15:36:35 18° 65° (ENE) 15:41:06 435.910
M-CUBED/EXP-1 PRIME 19 Dec 15:45:19 15:47:46 15° 297° (WNW) 15:50:07 437.505
AO-7 19 Dec 15:46:59 15:55:12 70° 71° (ENE) 16:03:28 29.400- 29.500
JUGNU 19 Dec 16:05:40 16:10:32 26° 188° (S) 16:15:22 437.505
GONETS M04 19 Dec 16:41:11 16:49:02 36° 77° (ENE) 16:56:47
STARS 19 Dec 16:44:32 16:46:03 12° 293° (WNW) 16:47:34 437.465
AIST 1 19 Dec 16:48:34 16:52:53 61° 94° (E) 16:57:12
SRMSAT 19 Dec 17:06:34 17:11:33 28° 186° (S) 17:16:31 437.500
JAS-2 19 Dec 17:13:06 17:20:55 77° 257° (WSW) 17:28:14 435.910
Cubesat XI-IV 19 Dec 17:38:09 17:43:01 37° 72° (ENE) 17:47:52 437.490
AO-7 19 Dec 17:42:50 17:48:24 20° 264° (W) 17:54:02 29.400- 29.500
MOZHAYETS 4 19 Dec 17:43:41 17:48:15 65° 284° (WNW) 17:52:47
JUGNU 19 Dec 17:55:47 17:59:00 15° 197° (SSW) 18:02:12 437.505
CUTE-I 19 Dec 18:11:13 18:16:32 81° 76° (ENE) 18:21:52 437.470
GONETS M04 19 Dec 18:37:51 18:45:42 39° 272° (W) 18:53:30
STRAND 1 19 Dec 18:46:48 18:51:14 30° 98° (E) 18:55:39 437.568
PRISM 19 Dec 18:53:15 18:57:23 77° 283° (WNW) 19:01:29 437.425
SRMSAT 19 Dec 18:56:19 19:00:12 18° 195° (SSW) 19:04:05 437.500
CUBESAT XI-V 19 Dec 19:03:27 19:07:59 57° 100° (E) 19:12:29 437.345
Cubesat XI-IV 19 Dec 19:19:13 19:23:07 21° 264° (W) 19:27:00 437.490
RS-15 19 Dec 19:19:30 19:25:15 15° 34° (NE) 19:31:05 29.354- 29.394
CUSAT 1 19 Dec 19:36:11 19:40:16 15° 70° (ENE) 19:44:29 437.405
MaSat-1 19 Dec 19:46:55 19:49:10 29° 251° (WSW) 19:51:33 437.345
AAUSAT CUBESAT 2 19 Dec 20:13:50 20:16:21 16° 70° (ENE) 20:18:51 437.432
BRITE-PL 19 Dec 20:15:06 20:18:45 29° 73° (ENE) 20:22:20 437.365/2234.400
DANDE 19 Dec 20:20:26 20:27:13 30° 76° (ENE) 20:34:29 436.750
CANX-2 19 Dec 20:22:06 20:26:00 36° 74° (ENE) 20:29:55 2200.000
HO-68 19 Dec 20:23:09 20:30:08 57° 71° (ENE) 20:37:07 435.675
STRAND 1 19 Dec 20:26:13 20:30:12 24° 291° (WNW) 20:34:12 437.568
CUBESAT XI-V 19 Dec 20:44:09 20:44:52 10° 293° (WNW) 20:45:34 437.345
GOMX 1 19 Dec 20:46:30 20:50:32 48° 75° (ENE) 20:54:31 467.674
COMPASS 1 19 Dec 20:46:41 20:50:42 47° 75° (ENE) 20:54:46 437.405
SEEDS 19 Dec 20:50:39 20:54:50 66° 77° (ENE) 20:59:03 437.485
CUTE 1.7 + AOD 2 19 Dec 20:52:40 20:56:54 84° 77° (ENE) 21:01:12 437.475
DX 1 19 Dec 21:02:12 21:05:37 23° 71° (ENE) 21:09:02 434.975-435.025
SO-50 19 Dec 21:02:49 21:07:09 54° 114° (ESE) 21:11:38 436.795
DELFI C3 19 Dec 21:09:51 21:13:23 29° 73° (ENE) 21:16:56 145.870
CUSAT 1 19 Dec 21:15:58 21:24:01 84° 83° (E) 21:32:33 437.405
DOVE 4 19 Dec 21:16:22 21:20:31 84° 77° (ENE) 21:24:40 437.250
Oscar 11 19 Dec 21:25:32 21:29:46 58° 76° (ENE) 21:34:02 145.826/435.025
HUMSAT D 19 Dec 21:28:10 21:30:01 13° 69° (ENE) 21:31:53 437.325/437.525
RS-15 19 Dec 21:29:15 21:40:29 61° 59° (ENE) 21:52:10 29.354- 29.394
UKube-1 19 Dec 21:33:27 21:37:40 54° 75° (ENE) 21:41:53 .
CUBEBUG 2 19 Dec 21:38:48 21:42:47 48° 75° (ENE) 21:46:50 437.445
ISS 19 Dec 21:47:42 21:50:57 67° 45° (NE) 21:54:11 145.825
AAUSAT CUBESAT 2 19 Dec 21:47:59 21:51:42 31° 262° (W) 21:55:27 437.432
CINEMA 3 19 Dec 21:48:59 21:53:05 68° 259° (W) 21:57:15 145.822/145.860
VELOX 1 19 Dec 21:52:26 21:56:09 27° 72° (ENE) 21:59:51 145.980
ZACube-1 19 Dec 21:53:35 21:57:36 51° 75° (ENE) 22:01:42 437.345
BRITE-PL 19 Dec 21:54:50 21:57:17 15° 264° (W) 21:59:43 437.365/2234.400
CANX-2 19 Dec 22:00:01 22:02:00 13° 266° (W) 22:04:01 2200.000
DANDE 19 Dec 22:03:02 22:10:46 54° 267° (W) 22:19:08 436.750
HO-68 19 Dec 22:12:57 22:18:04 21° 264° (W) 22:23:12 435.675
BEESAT 2 19 Dec 22:15:41 22:17:13 12° 51° (NE) 22:18:45 435.950
UNISAT 6 19 Dec 22:18:38 22:22:01 19° 95° (E) 22:25:23 437.425
UWE-3 19 Dec 22:18:54 22:22:59 59° 260° (W) 22:27:08 435.000/436.395/437.385
FUNcube-1 19 Dec 22:20:31 22:24:38 70° 259° (W) 22:28:50 145.935
DUCHIFAT 1 19 Dec 22:31:14 22:33:33 14° 95° (E) 22:35:53 145.980
AISAT 19 Dec 22:34:15 22:38:41 88° 257° (WSW) 22:43:06 437.250
BUGSAT 1 19 Dec 22:35:35 22:37:02 12° 94° (E) 22:38:29 437.445
DX 1 19 Dec 22:38:20 22:41:43 22° 263° (W) 22:45:07 434.975-435.025
QB50P2 19 Dec 22:43:14 22:46:30 21° 97° (E) 22:49:47 145.880/145.840
CUBEBUG 1 19 Dec 22:44:05 22:48:07 37° 74° (ENE) 22:52:08 437.445
SO-50 19 Dec 22:45:49 22:48:01 13° 310° (NW) 22:50:15 436.795
DELFI C3 19 Dec 22:46:09 22:48:37 16° 265° (W) 22:51:07 145.870
50 SAT 19 Dec 22:46:25 22:50:23 75° 259° (WSW) 22:54:25 437.505
ANTELSAT 19 Dec 22:49:29 22:54:01 45° 99° (E) 22:58:31 437.575/2403.000
POLYITAN 1 19 Dec 22:51:23 22:55:03 27° 98° (E) 22:58:42 437.675
NANOSAT C BR1 19 Dec 22:54:24 22:58:07 29° 98° (E) 23:01:49 145.865
CUSAT 1 19 Dec 23:01:33 23:06:21 17° 275° (W) 23:11:17 437.405
HUMSAT D 19 Dec 23:01:40 23:05:26 36° 262° (W) 23:09:16 437.325/437.525
QB50P1 19 Dec 23:08:20 23:12:25 44° 100° (E) 23:16:29 145.935-145.965
BEESAT 3 19 Dec 23:12:36 23:16:42 58° 61° (ENE) 23:20:43 437.485
AIST 2 19 Dec 23:14:39 23:18:07 24° 56° (NE) 23:21:32 435.215
TIGRISAT 19 Dec 23:25:28 23:30:09 70° 284° (WNW) 23:34:50 435.000
ESTCUBE 1 19 Dec 23:27:12 23:31:40 59° 259° (W) 23:36:09 437.505/2401.250
VELOX 1 19 Dec 23:29:27 23:32:39 20° 264° (W) 23:35:51 145.980
PCSat 19 Dec 23:33:12 23:38:13 38° 61° (ENE) 23:43:13 145.827
POPSAT HIP 1 19 Dec 23:36:45 23:41:01 78° 283° (WNW) 23:45:17 437.405
YUBILEINY 19 Dec 23:40:00 23:47:59 41° 88° (E) 23:55:55 435.215
RS-15 19 Dec 23:42:38 23:52:11 32° 255° (WSW) 00:02:08 29.354- 29.394
BEESAT 2 19 Dec 23:51:42 23:55:44 51° 246° (WSW) 23:59:43 435.950
UNISAT 6 19 Dec 23:54:36 23:58:45 32° 288° (WNW) 00:02:54 437.425
TISAT 1 19 Dec 23:55:06 23:59:14 59° 76° (ENE) 00:03:22 437.305
SPROUT 19 Dec 23:55:30 23:59:40 54° 75° (ENE) 00:03:50 437.525
O/OREOS (USA 219) 20 Dec 00:02:11 00:04:51 16° 100° (E) 00:07:31 437.305
DUCHIFAT 1 20 Dec 00:05:37 00:09:26 33° 287° (WNW) 00:13:16 145.980
BUGSAT 1 20 Dec 00:08:52 00:12:36 36° 286° (WNW) 00:16:21 437.445
QB50P2 20 Dec 00:18:55 00:22:17 23° 289° (WNW) 00:25:39 145.880/145.840
SWISSCUBE 20 Dec 00:18:59 00:21:54 16° 68° (ENE) 00:24:48 437.505
ITUPSAT 1 20 Dec 00:19:26 00:22:02 15° 67° (ENE) 00:24:38 437.325
CUBEBUG 1 20 Dec 00:22:22 00:24:33 14° 265° (W) 00:26:44 437.445
POLYITAN 1 20 Dec 00:27:46 00:30:45 19° 290° (WNW) 00:33:44 437.675
ANTELSAT 20 Dec 00:27:53 00:30:21 14° 292° (WNW) 00:32:50 437.575/2403.000
AUBIESAT-1 20 Dec 00:30:31 00:32:01 11° 61° (ENE) 00:33:31 437.475
NANOSAT C BR1 20 Dec 00:30:57 00:33:43 17° 290° (WNW) 00:36:30 145.865
BEESAT 20 Dec 00:42:54 00:46:55 28° 71° (ENE) 00:50:57 436.000
QB50P1 20 Dec 00:46:25 00:47:51 12° 292° (WNW) 00:49:18 145.935-145.965
M-CUBED/EXP-1 PRIME 20 Dec 00:53:00 00:56:42 23° 65° (ENE) 01:00:30 437.505
AIST 2 20 Dec 00:53:13 00:56:35 23° 250° (WSW) 00:59:55 435.215
PCSat 20 Dec 01:17:19 01:21:18 21° 254° (WSW) 01:25:17 145.827
Oscar 19 20 Dec 01:18:08 01:22:25 26° 97° (E) 01:26:41 437.125/150
ITAMSAT 1 20 Dec 01:34:34 01:36:01 11° 93° (E) 01:37:29 435.822/435.867
YUBILEINY 20 Dec 01:36:59 01:44:41 34° 283° (WNW) 01:52:24 435.215
O/OREOS (USA 219) 20 Dec 01:39:55 01:43:55 32° 293° (WNW) 01:47:56 437.305
SWISSCUBE 20 Dec 01:54:53 01:59:22 40° 261° (W) 02:03:53 437.505
ITUPSAT 1 20 Dec 01:54:54 01:59:29 45° 260° (W) 02:04:06 437.325
STARS 20 Dec 01:58:17 02:01:34 21° 70° (ENE) 02:04:51 437.465
KKS-1 20 Dec 01:59:28 02:03:27 34° 73° (ENE) 02:07:27 437.445
AUBIESAT-1 20 Dec 02:01:36 02:06:17 68° 255° (WSW) 02:11:09 437.475
BEESAT 20 Dec 02:20:55 02:24:39 23° 263° (W) 02:28:25 436.000
M-CUBED/EXP-1 PRIME 20 Dec 02:27:15 02:31:26 31° 259° (WSW) 02:35:47 437.505
VERMONT LUNAR 20 Dec 02:43:41 02:47:10 59° 147° (SSE) 02:50:38 437.305
PHONESAT 2.4 20 Dec 02:53:58 02:57:24 43° 145° (SE) 03:00:51 2401.200-2431.200
Oscar 19 20 Dec 02:57:14 03:01:38 28° 290° (WNW) 03:06:01 437.125/150
Gurwin Techsat 1B 20 Dec 03:01:22 03:06:37 62° 101° (E) 03:11:51 435.225
ITAMSAT 1 20 Dec 03:10:42 03:15:48 61° 285° (WNW) 03:20:52 435.822/435.867
HORYU 2 20 Dec 03:26:46 03:31:01 39° 99° (E) 03:35:13 437.375
STARS 20 Dec 03:34:17 03:37:51 25° 263° (W) 03:41:27 437.465
KKS-1 20 Dec 03:37:33 03:40:08 15° 265° (W) 03:42:43 437.445
AO-7 20 Dec 03:55:47 04:03:07 33° 99° (E) 04:10:23 29.400- 29.500
VERMONT LUNAR 20 Dec 04:22:36 04:25:39 26° 342° (NNW) 04:28:41 437.305
JAS-2 20 Dec 04:32:27 04:35:29 15° 93° (E) 04:38:26 435.910
PHONESAT 2.4 20 Dec 04:32:51 04:36:09 32° 339° (NNW) 04:39:27 2401.200-2431.200
AIST 1 20 Dec 04:39:25 04:43:34 53° 267° (W) 04:47:41
MOZHAYETS 4 20 Dec 04:39:43 04:44:16 59° 76° (ENE) 04:48:50
Gurwin Techsat 1B 20 Dec 04:43:45 04:45:59 13° 295° (WNW) 04:48:13 435.225
HORYU 2 20 Dec 05:04:51 05:07:17 15° 292° (WNW) 05:09:42 437.375
GONETS M04 20 Dec 05:34:16 05:42:39 50° 90° (E) 05:51:03
PRISM 20 Dec 05:38:29 05:42:19 35° 73° (ENE) 05:46:10 437.425
SO-50 20 Dec 05:41:30 05:43:48 13° 50° (NE) 05:46:05 436.795
AO-7 20 Dec 05:48:05 05:55:52 45° 293° (WNW) 06:03:37 29.400- 29.500
STRAND 1 20 Dec 05:57:30 06:01:35 25° 70° (ENE) 06:05:40 437.568
CUBESAT XI-V 20 Dec 06:01:39 06:05:40 29° 72° (ENE) 06:09:40 437.345
Cubesat XI-IV 20 Dec 06:01:43 06:05:58 24° 97° (E) 06:10:11 437.490
VERMONT LUNAR 20 Dec 06:02:33 06:04:43 15° 359° (N) 06:06:52 437.305
PHONESAT 2.4 20 Dec 06:13:10 06:15:32 16° 356° (N) 06:17:54 2401.200-2431.200
JAS-2 20 Dec 06:15:42 06:20:53 44° 288° (WNW) 06:25:46 435.910
CUTE-I 20 Dec 06:34:23 06:39:34 52° 101° (E) 06:44:44 437.470
PRISM 20 Dec 07:15:45 07:17:54 14° 265° (W) 07:20:02 437.425
SO-50 20 Dec 07:19:53 07:24:45 66° 245° (WSW) 07:29:35 436.795
GONETS M04 20 Dec 07:32:21 07:39:37 28° 285° (WNW) 07:46:57
STRAND 1 20 Dec 07:36:11 07:40:35 29° 262° (W) 07:44:59 437.568
CUBESAT XI-V 20 Dec 07:39:35 07:43:02 20° 264° (W) 07:46:29 437.345
VERMONT LUNAR 20 Dec 07:40:58 07:43:50 23° 16° (NNE) 07:46:42 437.305
Cubesat XI-IV 20 Dec 07:41:20 07:45:59 32° 289° (WNW) 07:50:37 437.490
PHONESAT 2.4 20 Dec 07:52:14 07:55:04 21° 13° (NNE) 07:57:54 2401.200-2431.200
HO-68 20 Dec 08:00:26 08:03:24 13° 93° (E) 08:06:22 435.675
CUTE-I 20 Dec 08:16:12 08:19:08 15° 294° (WNW) 08:22:03 437.470
CANX-2 20 Dec 08:16:47 08:17:01 10° 93° (E) 08:17:14 2200.000
BRITE-PL 20 Dec 08:25:01 08:28:20 18° 96° (E) 08:31:47 437.365/2234.400
